CW0775 Weather Reports


time (UTC)temp
F
wind
direction
speed
knots
gust
knots
rain 1hr
in
rain 24hr
in
rain mn
in
humidity
%
barometer
mb
20260831060007 61 267 0.0 2.6 0.00 0.56 0.56 95 1014.2
20260831054506 61 284 0.9 2.6 0.00 0.56 0.56 96 1014.2
20260831054005 61 282 1.7 2.6 0.00 0.56 0.56 96 1014.4
20260831053006 60 269 0.0 2.6 0.00 0.56 0.56 96 1014.2
20260831051505 60 274 0.0 2.6 0.00 0.56 0.56 96 1013.9
20260831051005 60 275 1.7 4.3 0.00 0.56 0.56 96 1013.9
20260831050506 60 270 1.7 4.3 0.00 0.56 0.56 96 1013.8
20260831050005 60 280 1.7 4.3 0.00 0.56 0.56 97 1013.9
20260831044505 60 269 1.7 4.3 0.00 0.56 0.56 97 1013.6
20260831043505 60 283 1.7 2.6 0.00 0.56 0.56 97 1013.5
20260831043005 60 267 0.9 1.7 0.00 0.56 0.56 97 1013.5
20260831041505 60 272 0.0 1.7 0.00 0.56 0.56 97 1013.5
20260831040005 60 267 0.9 1.7 0.00 0.56 0.56 97 1013.5
20260831034505 60 258 0.0 1.7 0.00 0.56 0.56 98 1013.5
20260831034005 60 261 0.0 1.7 0.00 0.56 0.56 98 1013.5
20260831033505 60 267 0.9 1.7 0.00 0.56 0.56 98 1013.5
20260831033005 61 274 0.0 2.6 0.00 0.56 0.56 98 1013.2
20260831031505 61 265 0.9 2.6 0.00 0.56 0.56 98 1013.2
20260831031005 61 279 0.9 1.7 0.00 0.56 0.56 98 1013.2
20260831024005 61 270 0.0 1.7 0.00 0.56 0.56 98 1013.2
20260831023506 61 281 0.9 1.7 0.00 0.56 0.56 98 1013.2
20260831023005 62 276 0.0 1.7 0.00 0.56 0.56 98 1012.9
20260831021505 62 278 0.0 0.0 0.00 0.56 0.56 98 1012.9
20260831020005 61 274 0.0 0.0 0.00 0.56 0.56 98 1012.9
20260831014505 61 275 0.0 0.0 0.02 0.56 0.56 97 1013.2
20260831014005 61 275 0.0 0.0 0.06 0.56 0.56 97 1012.9
20260831013506 61 276 0.0 0.0 0.09 0.56 0.56 97 1013.2
20260831013005 61 274 0.0 0.0 0.14 0.56 0.56 97 1012.9
20260831011505 61 279 0.0 0.0 0.26 0.56 0.56 97 1013.2
20260831011005 60 246 0.0 0.0 0.29 0.56 0.56 97 1013.2
20260831010506 61 268 0.0 0.0 0.31 0.56 0.56 97 1013.2
20260831010005 61 267 0.0 0.0 0.32 0.56 0.56 97 1013.1
20260831004505 60 283 0.0 1.7 0.37 0.54 0.54 97 1013.2
20260831004006 60 264 0.0 0.0 0.34 0.50 0.50 97 1013.5
20260831003505 60 269 0.0 0.0 0.31 0.47 0.47 97 1013.2
20260831001005 61 315 0.0 0.0 0.16 0.27 0.27 96 1013.2
20260831000505 61 77 0.0 0.0 0.15 0.25 0.25 96 1013.5
20260831000005 61 278 0.0 1.7 0.15 0.24 0.24 96 1013.3
20260830234505 61 252 0.0 1.7 0.11 0.17 0.17 95 1013.5
20260830234004 60 207 0.0 1.7 0.11 0.16 0.16 95 1013.2
20260830233505 60 269 0.0 1.7 0.12 0.16 0.16 94 1013.2
20260830233005 60 277 0.9 2.6 0.12 0.15 0.15 94 1013.3
20260830231005 61 267 0.0 0.0 0.10 0.11 0.11 94 1013.3
20260830230505 61 249 0.0 0.0 0.10 0.10 0.10 94 1013.2
20260830230005 61 251 0.0 0.0 0.09 0.09 0.09 94 1013.4
20260830224506 62 252 0.0 0.0 0.06 0.06 0.06 93 1012.9
20260830224005 62 252 0.0 0.0 0.05 0.05 0.05 92 1013.2
20260830223504 62 254 0.0 0.0 0.04 0.04 0.04 92 1013.1
20260830221005 63 241 0.0 1.7 0.01 0.01 0.01 86 1013.3
20260830220505 63 276 0.0 0.0 0.00 0.00 0.00 85 1013.3
20260830220005 63 276 0.0 0.0 0.00 0.00 0.00 84 1013.5
20260830214506 62 276 0.0 0.0 0.00 0.00 0.00 84 1013.2
20260830214005 62 276 0.0 0.0 0.00 0.00 0.00 84 1013.0
20260830213506 62 276 0.0 0.0 0.00 0.00 0.00 84 1013.2
20260830213005 62 276 0.0 0.0 0.00 0.00 0.00 84 1013.2
20260830211504 62 276 0.0 0.0 0.00 0.00 0.00 83 1012.9
20260830211004 63 276 0.0 0.0 0.00 0.00 0.00 83 1012.9
20260830210505 62 276 0.0 0.0 0.00 0.00 0.00 82 1013.2
20260830210004 62 276 0.0 0.0 0.00 0.00 0.00 83 1013.2
20260830204004 63 275 0.0 0.0 0.00 0.00 0.00 81 1013.2
20260830203504 63 275 0.0 0.0 0.00 0.00 0.00 80 1013.2
20260830203005 63 276 0.0 0.0 0.00 0.00 0.00 81 1013.2
20260830201504 64 275 0.0 0.0 0.00 0.00 0.00 79 1013.2
20260830201004 64 275 0.0 0.0 0.00 0.00 0.00 79 1013.2
20260830200506 64 272 0.0 0.0 0.00 0.00 0.00 79 1013.2
20260830200005 64 272 0.0 2.6 0.00 0.00 0.00 77 1013.0
20260830194505 64 275 0.0 0.0 0.00 0.00 0.00 80 1013.2
20260830194004 64 275 0.0 0.0 0.00 0.00 0.00 79 1012.9
20260830193504 64 275 0.0 0.0 0.00 0.00 0.00 79 1013.2
20260830193004 64 275 0.0 0.0 0.00 0.00 0.00 79 1013.4
20260830191504 65 275 0.0 0.0 0.00 0.00 0.00 76 1013.5
20260830191005 66 276 0.0 0.0 0.00 0.00 0.00 75 1013.5
20260830190505 65 276 0.0 0.0 0.00 0.00 0.00 74 1013.2
20260830190005 66 276 0.0 0.0 0.00 0.00 0.00 75 1013.2
20260830184004 66 276 0.0 0.0 0.00 0.00 0.00 73 1013.3
20260830183505 67 276 0.0 0.0 0.00 0.00 0.00 72 1013.2
20260830181505 69 274 0.9 1.7 0.00 0.00 0.00 68 1013.1
20260830181005 69 274 0.9 1.7 0.00 0.00 0.00 66 1013.2
20260830180506 69 274 0.9 1.7 0.00 0.00 0.00 66 1013.2
20260830180005 70 272 1.7 1.7 0.00 0.00 0.00 65 1013.2
20260830174506 72 268 0.0 1.7 0.00 0.00 0.00 61 1013.0
20260830174005 72 273 0.0 0.0 0.00 0.00 0.00 60 1013.2
20260830173505 72 250 0.0 2.6 0.00 0.00 0.00 59 1013.3
20260830173005 73 255 0.9 2.6 0.00 0.00 0.00 58 1013.2
20260830171504 74 254 0.9 6.1 0.00 0.00 0.00 56 1013.2
20260830171004 74 248 2.6 6.1 0.00 0.00 0.00 55 1013.5
20260830170505 74 276 3.5 6.1 0.00 0.00 0.00 54 1013.2
20260830170004 74 292 4.3 8.7 0.00 0.00 0.00 53 1013.5
20260830164505 75 296 4.3 8.7 0.00 0.00 0.00 52 1013.5
20260830164004 75 288 4.3 8.7 0.00 0.00 0.00 52 1013.2
20260830163504 75 267 1.7 6.1 0.00 0.00 0.00 53 1013.2
20260830163005 76 286 2.6 12.2 0.00 0.00 0.00 52 1013.5
20260830161505 76 284 5.2 8.7 0.00 0.00 0.00 51 1013.2
20260830161005 76 295 5.2 8.7 0.00 0.00 0.00 50 1013.2
20260830160505 76 280 4.3 8.7 0.00 0.00 0.00 51 1013.2
20260830160006 76 273 4.3 8.7 0.00 0.00 0.00 51 1013.2
20260830154505 77 257 2.6 4.3 0.00 0.00 0.00 51 1013.2
20260830154004 77 262 1.7 8.7 0.00 0.00 0.00 50 1013.2
20260830153004 78 284 6.1 11.3 0.00 0.00 0.00 49 1012.9
20260830151504 77 300 5.2 8.7 0.00 0.00 0.00 49 1013.2
20260830151005 77 263 5.2 7.0 0.00 0.00 0.00 49 1013.2
20260830150505 79 284 5.2 7.0 0.00 0.00 0.00 48 1013.2
20260830150004 79 265 4.3 11.3 0.00 0.00 0.00 47 1013.2
20260830144504 77 265 5.2 8.7 0.00 0.00 0.00 48 1013.5
20260830144004 77 262 7.8 12.2 0.00 0.00 0.00 50 1013.5
20260830143504 77 308 4.3 13.0 0.00 0.00 0.00 49 1013.5
20260830143004 78 291 3.5 12.2 0.00 0.00 0.00 50 1013.5
20260830141504 77 272 7.0 12.2 0.00 0.00 0.00 50 1013.5
20260830141005 78 292 6.1 8.7 0.00 0.00 0.00 51 1013.5
20260830140004 78 283 1.7 11.3 0.00 0.00 0.00 50 1013.5
20260830134504 77 2 4.3 7.0 0.00 0.00 0.00 53 1013.5
20260830133504 77 295 6.1 12.2 0.00 0.00 0.00 52 1013.5
20260830133004 77 289 5.2 12.2 0.00 0.00 0.00 50 1013.5
20260830131504 78 267 7.8 18.2 0.00 0.00 0.00 47 1013.8
20260830131004 79 288 7.8 18.2 0.00 0.00 0.00 48 1013.8
20260830130504 78 293 4.3 12.2 0.00 0.00 0.00 50 1013.7
20260830130004 79 276 6.1 13.0 0.00 0.00 0.00 50 1013.9
20260830124505 78 278 5.2 11.3 0.00 0.00 0.00 52 1013.6
20260830123504 77 269 2.6 8.7 0.00 0.00 0.00 53 1013.9
20260830123004 76 258 6.1 15.6 0.00 0.00 0.00 53 1013.9
20260830121504 77 296 7.8 12.2 0.00 0.00 0.00 52 1013.9
20260830121004 77 296 5.2 12.2 0.00 0.00 0.00 52 1013.6
20260830120505 77 276 5.2 18.2 0.00 0.00 0.00 51 1013.9
20260830120004 77 357 5.2 14.8 0.00 0.00 0.00 53 1013.9
20260830114505 77 279 7.8 11.3 0.00 0.00 0.00 54 1013.9
20260830114004 77 300 4.3 11.3 0.00 0.00 0.00 51 1013.6
20260830113504 77 282 6.1 12.2 0.00 0.00 0.00 53 1013.9
20260830113003 77 291 6.1 13.0 0.00 0.00 0.00 55 1013.7
20260830111503 77 283 9.6 13.0 0.00 0.00 0.00 55 1013.9
20260830110505 77 233 4.3 8.7 0.00 0.00 0.00 56 1013.9
20260830110005 77 304 4.3 13.0 0.00 0.00 0.00 57 1013.9
20260830104504 76 298 4.3 11.3 0.00 0.00 0.00 58 1014.2
20260830104003 76 223 3.5 11.3 0.00 0.00 0.00 59 1014.1
20260830103504 76 282 6.1 11.3 0.00 0.00 0.00 58 1014.2
20260830103005 76 209 3.5 11.3 0.00 0.00 0.00 59 1014.1
20260830101503 75 270 5.2 11.3 0.00 0.00 0.00 60 1014.2
20260830101004 75 296 5.2 12.2 0.00 0.00 0.00 61 1014.2
20260830100504 76 307 3.5 11.3 0.00 0.00 0.00 58 1014.2
20260830100006 76 323 6.1 13.0 0.00 0.00 0.00 58 1014.2
20260830094006 75 18 3.5 14.8 0.00 0.00 0.00 59 1014.1
20260830093506 75 306 5.2 11.3 0.00 0.00 0.00 60 1014.2
20260830091006 74 299 3.5 11.3 0.00 0.00 0.00 63 1014.0
20260830090506 73 289 7.0 11.3 0.00 0.00 0.00 65 1014.2
20260830090006 73 224 2.6 21.7 0.00 0.00 0.00 65 1014.2
20260830084006 73 252 7.8 12.2 0.00 0.00 0.00 67 1014.0
20260830083505 72 229 11.3 15.6 0.00 0.00 0.00 69 1013.9
20260830083005 72 306 10.4 15.6 0.00 0.00 0.00 70 1013.9
20260830081506 73 289 5.2 14.8 0.00 0.00 0.00 70 1014.2
20260830081005 73 214 4.3 11.3 0.00 0.00 0.00 70 1013.9
20260830080506 73 302 4.3 8.7 0.00 0.00 0.00 70 1013.9
20260830074506 70 257 6.1 8.7 0.00 0.00 0.00 75 1013.9
20260830074006 70 290 2.6 8.7 0.00 0.00 0.00 76 1013.9
20260830073506 70 265 3.5 11.3 0.00 0.00 0.00 75 1013.8
20260830073006 70 295 4.3 11.3 0.00 0.00 0.00 76 1013.5
20260830071506 69 281 5.2 8.7 0.00 0.00 0.00 78 1013.5
20260830071005 69 269 7.0 14.8 0.00 0.00 0.00 77 1013.5
20260830070506 70 236 3.5 8.7 0.00 0.00 0.00 76 1013.5
20260830070005 70 264 1.7 7.0 0.00 0.00 0.00 77 1013.5
20260830064506 69 276 2.6 4.3 0.00 0.00 0.00 79 1013.5
20260830064006 69 269 4.3 7.0 0.00 0.00 0.00 80 1013.9
20260830063505 69 299 3.5 6.1 0.00 0.00 0.00 80 1013.2
20260830061505 67 285 3.5 4.3 0.00 0.00 0.00 82 1013.2
20260830061005 68 297 2.6 4.3 0.00 0.00 0.00 82 1013.5
20260830060506 67 292 1.7 4.3 0.00 0.00 0.00 82 1013.2